Home > Weather > Sfax > Past weeks

Flag for Tunisia Past Weather in Sfax, Tunisia — Yesterday and Last 2 Weeks

Now
88 °F

Passing clouds.


Feels Like: 96 °F
Forecast: 74 / 89 °F
Wind: 12 mph from Northeast

Location: Sfax El-Maou

Current Time: Jul 1, 2016 at 6:13:11 PM

Latest Report: Jul 1, 2016 at 5:00 PM


Visibility: N/A

Pressure: 29.89 "Hg

Humidity: 62%

Dew Point: 73 °F

Location of SfaxLocation

Past Weather in Sfax — Graph

°F

Sfax Temperature Yesterday

Maximum temperature yesterday: 88 °F (at 2:00 PM)
Minimum temperature yesterday: 75 °F (at 3:00 AM)
Average temperature yesterday: 81 °F

High & Low Weather Summary for the Past Weeks

 TemperatureHumidityPressure
High93 °F (Jun 24, 4:00 PM)89% (Jul 1, 6:00 AM)30.15 "Hg (Jul 1, 6:00 AM)
Low64 °F (Jun 20, 5:00 AM)27% (Jun 18, 6:00 PM)29.59 "Hg (Jun 16, 6:00 PM)
Average79 °F57%30.00 "Hg
* Reported Jun 16 6:00 PM — Jul 1 5:00 PM, Sfax, Weather by CustomWeather, © 2016

Note: Actual official high and low records may vary slightly from our data, if they occured in-between our weather recording intervals... More about our weather records

Advertising

Sfax Weather History for the Previous 24 Hours

Scroll right to see more
 ConditionsComfort  
Time TempWeatherWind HumidityBarometerVisibility
5:00 PM
Fri, Jul 1
88 °FPassing clouds.12 mph62%29.89 "HgN/A
4:00 PM88 °FPassing clouds.13 mph62%29.89 "HgN/A
3:00 PM90 °FPassing clouds.12 mph59%29.92 "HgN/A
2:00 PM90 °FPassing clouds.13 mph59%29.92 "HgN/A
1:00 PM90 °FPassing clouds.13 mph55%29.92 "HgN/A
12:00 PM93 °FPassing clouds.8 mph49%29.92 "HgN/A
11:00 AM91 °FPassing clouds.10 mph49%29.95 "HgN/A
10:00 AM84 °FPassing clouds.12 mph62%29.95 "HgN/A
9:00 AM82 °FScattered clouds.15 mph70%29.95 "HgN/A
8:00 AM79 °FScattered clouds.14 mph74%29.92 "HgN/A
7:00 AM77 °FScattered clouds.12 mph79%29.92 "HgN/A
6:00 AM75 °FScattered clouds.14 mph89%29.89 "HgN/A
5:00 AM77 °FPassing clouds.10 mph83%29.86 "HgN/A
4:00 AM77 °FPassing clouds.10 mph79%29.86 "HgN/A
3:00 AM81 °FPassing clouds.8 mph70%29.86 "HgN/A
2:00 AM79 °FPassing clouds.10 mph79%29.86 "HgN/A
1:00 AM81 °FPassing clouds.10 mph74%29.89 "HgN/A
12:00 AM82 °FPassing clouds.8 mph66%29.89 "HgN/A
11:00 PM
Thu, Jun 30
82 °FPassing clouds.7 mph70%29.92 "HgN/A
10:00 PM81 °FPassing clouds.7 mph70%29.92 "HgN/A
9:00 PM82 °FPassing clouds.9 mph62%29.89 "HgN/A
8:00 PM81 °FPassing clouds.9 mph66%29.86 "HgN/A
7:00 PM82 °FPassing clouds.10 mph58%29.86 "HgN/A
6:00 PM82 °FPassing clouds.12 mph62%29.86 "HgN/A
Weather by CustomWeather, © 2016

See weather overviewHow to use our weather pages